TimeCDT,TemperatureF,Dew PointF,Humidity,Sea Level PressureIn,VisibilityMPH,Wind Direction,Wind SpeedMPH,Gust SpeedMPH,PrecipitationIn,Events,Conditions,WindDirDegrees,DateUTC
12:52 AM,28.0,21.9,78,30.30,10.0,SE,6.9,-,N/A,,Clear,130,2013-03-27 05:52:00
1:52 AM,28.0,21.9,78,30.29,10.0,SE,6.9,-,N/A,,Clear,140,2013-03-27 06:52:00
2:52 AM,26.1,21.9,84,30.29,10.0,SE,6.9,-,N/A,,Clear,140,2013-03-27 07:52:00
3:52 AM,23.0,19.9,88,30.28,10.0,ESE,6.9,-,N/A,,Clear,110,2013-03-27 08:52:00
4:52 AM,21.9,19.9,92,30.28,10.0,ESE,6.9,-,N/A,,Clear,110,2013-03-27 09:52:00
5:52 AM,25.0,21.0,85,30.27,10.0,ESE,8.1,-,N/A,,Clear,110,2013-03-27 10:52:00
6:52 AM,23.0,19.0,85,30.28,10.0,ESE,5.8,-,N/A,,Clear,120,2013-03-27 11:52:00
7:52 AM,23.0,19.9,88,30.30,10.0,ESE,5.8,-,N/A,,Clear,120,2013-03-27 12:52:00
8:52 AM,28.9,24.1,82,30.31,10.0,SE,8.1,-,N/A,,Clear,130,2013-03-27 13:52:00
9:52 AM,33.1,24.1,70,30.32,10.0,SSE,9.2,-,N/A,,Clear,150,2013-03-27 14:52:00
10:52 AM,37.0,25.0,62,30.31,10.0,SE,13.8,-,N/A,,Clear,140,2013-03-27 15:52:00
11:52 AM,42.1,27.0,55,30.30,10.0,SE,15.0,-,N/A,,Scattered Clouds,140,2013-03-27 16:52:00
12:52 PM,44.1,26.1,49,30.28,10.0,SE,16.1,23.0,N/A,,Clear,130,2013-03-27 17:52:00
1:52 PM,48.0,26.1,42,30.26,10.0,SE,11.5,-,N/A,,Clear,130,2013-03-27 18:52:00
2:52 PM,50.0,27.0,41,30.24,10.0,SE,13.8,-,N/A,,Clear,130,2013-03-27 19:52:00
3:52 PM,51.1,26.1,38,30.22,10.0,SSE,12.7,18.4,N/A,,Mostly Cloudy,150,2013-03-27 20:52:00
4:52 PM,50.0,27.0,41,30.21,10.0,SE,16.1,-,N/A,,Mostly Cloudy,140,2013-03-27 21:52:00
5:52 PM,51.1,28.0,41,30.21,10.0,SE,10.4,-,N/A,,Mostly Cloudy,140,2013-03-27 22:52:00
6:52 PM,48.9,28.0,44,30.23,10.0,SE,8.1,-,N/A,,Clear,140,2013-03-27 23:52:00
7:52 PM,44.1,28.0,53,30.24,10.0,ESE,5.8,-,N/A,,Clear,110,2013-03-28 00:52:00
8:52 PM,39.0,28.0,65,30.25,10.0,East,8.1,-,N/A,,Clear,100,2013-03-28 01:52:00
9:52 PM,36.0,27.0,70,30.27,10.0,East,6.9,-,N/A,,Clear,100,2013-03-28 02:52:00
10:52 PM,32.0,26.1,79,30.28,10.0,ESE,8.1,-,N/A,,Clear,110,2013-03-28 03:52:00
11:52 PM,28.4,24.8,86,30.25,10.0,ESE,6.9,-,N/A,,Clear,110,2013-03-28 04:52:00